Theta_e
348 349 350 351 351 349 349 349 350 352 352 353 353 353 354 355 355 356 355 355 356 355 355 355 355 355 356 357 357 357 357 359 359 358 357 357 356 355 354 353 353 353 353 352 352 350 349 347 347 347 346 346 347 347 347 348 348 347 345 344 344 344 340 338 335 338 338 340 344 347 350 351 350 350 352 353 354 355 357 356 355 354 354 354 355
350 350 350 351 350 351 350 350 350 351 351 351 352 352 353 353 354 354 354 354 355 355 355 355 355 355 355 355 356 357 357 357 359 358 357 356 356 358 356 354 353 353 351 352 353 352 350 347 347 348 347 347 346 346 346 346 344 345 345 347 343 344 344 340 336 334 337 338 340 343 345 352 349 349 351 352 352 356 355 355 357 354 355 354 354
350 352 352 351 350 351 351 351 351 351 350 350 350 351 352 352 353 352 352 353 353 354 354 355 355 355 354 355 355 356 357 357 358 358 357 357 356 357 358 356 354 353 352 353 353 352 350 350 350 351 352 347 347 346 345 344 345 344 344 344 343 344 344 343 339 336 337 339 338 339 342 346 348 348 348 352 355 354 353 354 355 357 357 356 355
348 348 348 349 349 350 350 351 351 351 350 350 349 350 350 350 352 351 351 351 350 352 353 354 354 354 354 354 354 354 356 357 357 358 358 357 357 356 357 357 357 355 354 354 354 353 352 350 352 352 351 349 348 346 345 344 343 343 343 342 343 344 344 344 344 342 338 338 339 341 342 342 346 348 351 354 354 354 353 354 353 354 355 357 356
347 348 348 347 347 347 348 349 350 351 351 351 350 350 350 350 349 350 350 349 349 349 351 352 352 353 354 354 353 353 354 356 356 357 358 358 357 357 357 357 357 356 356 355 359 354 353 352 352 351 350 350 350 347 346 344 345 343 342 343 343 345 346 345 344 343 341 340 340 341 343 344 347 348 350 352 352 350 348 349 352 354 355 357 357
346 346 349 347 346 346 346 347 349 350 350 351 351 351 350 349 349 349 349 348 348 348 348 350 352 351 353 354 353 353 353 354 355 356 357 357 357 358 358 357 357 356 356 355 355 355 355 354 354 353 351 350 350 349 346 346 346 345 344 343 343 342 343 343 343 343 342 342 341 341 340 345 344 345 347 349 350 350 350 351 351 352 351 353 355
345 344 349 347 346 346 345 346 347 349 350 350 351 350 349 348 347 347 349 349 348 347 347 348 351 351 352 353 353 353 352 353 353 354 355 355 356 356 357 356 356 355 355 355 355 355 355 355 354 354 352 352 351 350 348 347 348 347 348 346 345 342 342 342 343 342 343 343 342 343 343 343 345 345 345 347 347 349 348 349 349 348 347 346 350
346 346 347 346 345 346 346 346 347 347 348 349 349 349 348 346 345 344 346 346 347 346 346 346 348 351 352 352 352 353 352 351 351 352 353 353 354 354 355 355 355 355 355 355 355 355 355 355 356 355 354 354 353 352 351 350 349 348 349 348 346 344 343 343 343 343 342 342 341 342 339 340 339 344 347 344 345 343 346 348 346 347 349 344 345
349 348 347 346 345 345 346 346 347 348 351 349 348 347 347 346 345 344 343 344 346 346 345 345 346 347 349 351 351 352 352 352 352 352 351 351 352 352 353 354 354 353 353 353 354 355 355 356 356 356 358 363 362 360 358 357 352 349 349 348 347 345 344 343 343 342 342 341 342 341 339 342 344 343 344 341 341 342 341 342 343 346 345 346 349
349 349 349 349 349 349 348 349 347 348 348 346 344 345 346 346 345 344 344 345 345 344 343 343 343 345 346 348 349 351 351 352 355 348 350 353 351 352 352 352 353 353 352 352 352 353 354 355 357 364 363 363 361 356 348 353 359 356 352 349 348 347 346 344 343 342 342 341 341 341 340 341 342 342 342 342 344 342 345 343 342 346 342 344 345
345 346 346 347 348 348 348 347 346 345 345 344 343 344 345 346 345 343 343 344 345 347 347 342 341 342 345 346 347 349 350 352 347 337 337 341 353 351 350 350 351 352 352 351 350 351 352 353 354 359 364 363 358 351 346 343 343 345 347 358 360 351 347 345 345 344 342 342 343 341 340 341 343 344 343 345 345 345 345 344 345 343 342 337 340
343 343 344 345 346 347 347 347 346 347 347 345 344 344 345 344 343 343 344 344 346 349 347 344 342 343 344 343 345 348 349 349 337 334 334 334 342 353 351 350 350 350 351 350 351 351 351 351 352 353 353 354 354 354 353 348 341 340 340 343 343 348 353 353 349 345 343 343 343 343 343 342 344 344 345 344 346 344 346 345 344 343 342 339 336
339 339 341 343 344 344 344 344 344 345 346 348 346 346 345 345 345 346 347 348 349 346 346 347 346 343 344 344 343 344 346 343 334 331 331 330 331 341 351 350 349 350 350 350 349 349 349 349 349 350 352 361 361 355 351 351 347 342 339 340 341 342 337 337 343 352 349 345 344 344 344 345 344 346 348 345 345 345 343 342 342 342 342 342 343
338 340 341 341 342 343 343 344 344 344 345 346 347 346 345 346 348 350 351 350 349 349 349 348 348 345 344 344 345 347 346 345 333 328 326 326 327 332 344 347 348 348 348 349 349 349 348 348 347 348 348 349 349 348 348 347 347 346 345 345 345 349 346 338 336 338 347 349 348 346 348 348 347 349 352 349 347 347 345 345 345 342 344 345 347
330 331 333 338 342 342 342 343 343 344 345 345 345 345 345 345 343 345 345 344 346 347 348 345 345 350 350 349 347 349 351 337 330 329 325 321 323 328 339 344 347 348 349 349 348 348 348 348 347 347 347 346 347 349 345 344 343 343 343 343 344 344 344 345 345 345 345 346 348 349 351 351 351 352 353 352 352 352 351 350 349 349 350 348 347
329 330 329 330 332 338 342 341 342 342 341 341 340 340 341 341 340 342 340 340 341 344 346 348 347 345 346 350 348 347 351 337 334 331 325 322 322 332 336 339 342 345 347 349 350 350 349 349 348 347 346 346 349 342 350 348 343 341 341 341 342 343 344 348 338 341 348 347 348 349 351 353 345 353 354 353 353 353 353 350 346 346 346 343 341
327 329 331 330 331 330 331 337 342 342 341 339 339 340 340 339 340 342 338 337 340 341 342 345 345 345 345 346 347 346 349 343 332 327 325 323 326 333 334 337 339 341 343 346 348 349 350 350 348 348 347 346 344 332 331 343 343 343 342 342 342 342 343 345 336 329 329 329 329 331 331 331 330 328 326 326 336 343 342 339 341 342 339 337 339
325 326 326 328 329 328 330 330 333 342 341 338 338 339 341 341 339 341 337 337 338 339 343 343 344 344 345 344 349 348 348 344 324 321 318 319 328 334 335 334 334 336 338 340 342 344 347 356 359 349 347 347 337 330 329 337 339 340 340 340 340 340 342 344 345 345 328 324 324 325 326 327 328 328 328 328 328 334 338 338 342 340 339 338 337
325 324 325 327 327 327 328 329 329 331 338 340 342 340 339 340 341 340 339 337 338 339 345 343 344 344 344 345 347 347 347 342 326 319 319 316 327 337 338 337 336 336 337 338 339 341 342 349 353 354 352 347 332 328 326 334 339 340 340 339 339 339 341 341 341 343 344 345 346 343 341 336 339 338 341 333 332 342 339 340 342 340 339 340 340
323 323 323 324 325 327 327 329 329 329 332 335 336 337 339 340 341 340 339 337 339 341 343 343 340 339 340 340 340 340 340 340 339 320 316 318 317 334 339 339 339 339 339 341 342 342 343 343 346 335 327 324 322 320 320 321 336 339 339 338 338 338 341 341 343 343 344 347 348 349 350 351 351 349 348 348 348 349 342 341 341 342 341 341 342
322 323 322 322 322 323 325 326 327 329 332 331 333 334 334 336 338 338 339 339 338 339 341 340 339 337 337 339 338 337 340 339 338 322 315 317 318 327 338 340 340 340 341 342 342 342 343 344 345 338 316 312 311 310 310 312 318 332 337 339 340 341 340 338 341 350 343 342 343 343 344 346 349 351 352 352 352 351 349 344 345 344 343 343 343
322 323 324 323 323 322 324 327 329 329 330 330 329 329 331 331 332 332 332 331 331 331 333 335 333 333 332 334 335 334 338 342 338 328 314 313 314 318 332 333 331 336 338 340 342 343 345 346 347 329 314 312 310 308 308 311 313 327 332 322 321 322 332 339 338 337 337 338 339 340 341 342 342 343 345 348 350 351 352 351 348 347 347 347 347
321 322 324 324 325 323 324 325 326 328 328 328 327 327 328 328 327 328 327 327 326 326 328 329 328 328 329 329 330 331 333 337 334 336 317 311 310 313 314 322 320 335 334 335 336 338 341 342 345 339 318 311 309 308 309 310 318 328 318 315 316 318 328 333 334 335 335 337 338 338 340 341 342 342 343 344 346 348 349 349 349 348 347 347 348
321 322 323 321 322 323 323 326 324 324 326 325 326 325 325 326 326 326 324 325 324 323 324 326 325 325 325 326 328 329 331 333 336 333 329 313 311 309 311 311 315 326 331 332 333 335 337 338 336 318 309 305 307 309 310 313 321 312 310 313 315 320 329 334 333 335 336 335 336 337 339 341 342 343 344 345 346 346 348 349 350 350 348 346 346
322 321 319 318 320 319 318 321 322 321 321 322 323 324 323 324 323 323 324 323 323 321 322 323 321 322 322 323 324 326 328 329 330 333 332 326 316 312 313 314 315 315 328 332 334 334 326 316 311 310 310 309 309 311 316 322 317 314 312 313 320 330 332 334 336 337 337 338 339 340 341 343 344 346 347 348 348 348 346 347 349 350 351 351 349
323 321 319 320 319 318 316 319 319 319 320 321 324 321 321 323 323 322 322 322 322 321 320 320 320 319 319 319 320 323 325 327 327 331 334 330 326 318 316 316 322 320 325 328 324 319 316 315 315 315 316 318 328 335 338 338 327 323 321 324 330 332 335 336 337 337 337 339 340 341 343 345 346 348 348 348 347 346 346 346 346 346 347 347 348
322 319 317 319 319 318 319 319 317 318 317 317 319 322 321 319 320 323 321 318 318 319 317 320 318 318 317 317 318 320 321 323 325 326 325 324 323 323 322 323 322 321 323 323 322 321 322 325 326 321 320 321 324 327 329 332 333 335 336 336 336 336 337 337 337 338 339 339 340 341 343 344 345 344 344 344 344 345 346 346 346 346 346 345 344
318 317 318 319 322 321 321 328 322 316 317 318 317 318 319 319 318 318 318 316 314 315 316 318 318 316 315 315 316 317 319 320 321 316 319 319 318 318 319 321 317 316 318 316 315 318 322 325 326 335 338 339 338 338 338 338 339 338 338 338 338 339 341 342 343 340 339 340 340 341 341 341 341 341 342 342 343 344 345 345 345 345 345 344 342
319 317 318 319 320 323 320 319 319 318 316 318 317 318 316 317 316 315 317 317 316 314 314 314 317 314 314 314 315 316 318 319 320 309 311 303 306 310 314 314 311 312 315 307 312 319 323 329 332 333 334 334 335 336 337 338 338 339 340 341 341 341 340 339 338 339 340 339 339 339 339 340 340 341 341 341 341 343 344 344 345 345 345 344 343
314 315 318 319 321 321 319 317 317 318 317 316 316 317 321 313 313 314 314 319 313 307 309 313 313 313 312 316 317 316 316 319 305 298 296 296 296 297 298 297 297 303 305 303 312 316 326 328 330 331 332 333 334 335 336 337 338 339 340 336 340 342 342 341 341 341 340 339 339 339 339 339 340 340 340 340 341 342 342 338 344 344 343 342 342
313 313 317 317 320 319 318 316 315 314 314 314 316 316 314 314 305 305 309 313 307 302 301 301 302 306 314 313 316 313 310 303 297 295 296 296 296 296 296 296 297 297 299 311 324 325 326 326 327 328 329 330 330 330 330 332 334 336 337 339 342 342 340 341 342 340 340 340 339 340 340 340 340 340 340 340 340 341 342 341 343 343 343 343 342
309 311 312 313 315 315 312 314 314 313 313 312 314 314 312 312 313 307 304 305 305 302 302 301 300 299 301 305 313 315 310 302 296 297 297 297 297 296 296 296 297 300 300 302 322 321 321 321 321 321 321 322 323 324 324 325 325 327 329 330 331 333 334 336 337 341 342 342 342 341 342 342 342 341 341 340 338 340 341 342 342 342 342 342 343
309 310 311 311 312 312 311 310 311 310 311 312 312 313 312 312 311 312 313 305 304 303 304 303 302 300 299 296 297 300 300 299 297 298 297 298 297 297 296 300 298 301 308 316 317 316 316 316 316 317 316 316 317 318 319 320 320 321 324 327 328 328 330 330 332 336 336 337 339 341 342 343 342 341 339 340 340 341 342 342 343 343 342 342 342
312 314 312 309 308 308 307 307 307 308 309 308 311 312 312 314 311 312 312 313 313 309 307 305 304 303 303 299 296 296 297 297 297 297 298 299 298 299 301 308 301 301 307 314 314 313 313 312 312 311 311 312 313 315 315 315 316 317 321 323 324 326 326 327 329 330 331 332 334 336 338 341 341 342 343 343 344 343 343 342 343 342 342 343 343
311 313 315 313 307 306 305 306 306 307 309 310 308 311 312 312 314 314 312 313 313 313 313 314 311 305 308 306 301 298 296 298 299 298 299 299 299 303 308 313 311 311 310 312 313 312 311 310 308 308 308 309 310 311 310 311 312 315 317 318 319 320 321 323 324 325 326 330 332 332 332 335 340 341 342 343 343 343 343 343 344 343 343 343 343
308 308 309 309 307 305 305 305 305 306 307 308 311 311 312 312 312 312 311 313 313 312 312 311 311 312 308 305 304 302 301 300 299 298 299 299 301 305 311 309 308 309 310 309 310 311 310 309 308 307 307 308 308 308 308 309 311 311 312 313 314 316 317 319 319 321 323 326 328 329 329 334 335 336 338 340 342 342 343 343 342 342 342 342 342
305 307 307 307 306 305 305 305 306 309 313 311 309 308 310 311 311 310 310 310 312 311 309 309 311 312 312 316 318 308 304 302 300 299 300 301 302 311 310 309 307 308 309 308 309 309 307 306 307 306 307 306 306 306 307 308 309 309 309 311 312 312 313 314 316 319 320 321 323 326 329 331 330 328 326 326 328 332 337 340 341 339 339 337 333
303 305 306 306 306 305 304 305 309 312 311 310 309 308 309 309 309 310 310 310 311 311 308 308 313 308 309 310 319 316 313 306 304 304 304 303 305 308 308 311 310 308 308 308 308 307 305 305 305 305 305 305 305 306 306 306 307 307 307 308 309 310 311 313 314 315 317 318 320 322 320 318 318 318 317 318 319 322 327 330 334 337 339 337 337
301 308 308 307 308 305 304 308 308 308 307 307 306 308 308 308 308 308 308 306 307 307 309 307 308 308 308 311 309 312 311 309 309 308 309 310 311 310 309 309 309 309 308 307 308 307 305 304 305 305 305 304 305 305 306 306 306 306 306 306 307 308 309 309 311 312 314 314 317 315 313 312 312 312 312 313 314 317 320 321 324 328 332 336 339
303 301 306 307 306 306 306 307 307 305 305 304 304 305 306 306 306 307 306 305 305 306 306 307 307 308 309 310 308 305 308 309 309 310 311 312 311 312 311 310 309 308 308 306 305 305 304 303 303 303 303 303 303 304 305 305 305 305 305 305 306 305 306 307 309 310 311 313 313 310 309 308 308 308 308 309 311 313 314 316 319 324 329 333 335
299 301 306 306 305 303 305 304 303 303 304 304 304 304 303 307 308 307 305 305 306 305 306 306 305 306 307 306 303 301 306 308 309 310 311 312 311 311 310 309 309 307 307 306 306 306 304 303 302 302 302 303 303 304 304 304 304 303 303 304 303 304 304 304 305 307 308 310 308 306 305 304 304 304 303 305 307 309 313 315 318 322 325 328 332
301 300 301 302 303 303 302 303 302 303 302 304 303 304 307 306 306 305 305 304 305 306 305 304 304 306 305 303 301 298 306 310 311 310 308 309 309 309 310 309 308 307 306 305 305 305 304 304 303 303 302 303 303 304 303 302 302 302 302 302 301 301 301 301 303 304 305 304 304 303 302 302 302 302 302 303 304 307 309 312 313 317 320 322 326
302 300 299 301 301 301 301 301 302 300 301 302 304 307 307 307 305 306 304 304 304 305 304 304 305 306 306 305 304 303 306 307 310 308 307 308 307 308 307 307 306 305 305 305 305 305 304 303 303 303 303 303 303 302 302 301 302 302 301 300 299 298 298 299 301 302 301 301 301 301 299 299 299 298 299 302 303 304 306 308 311 314 316 319 322
299 300 301 301 301 301 302 301 301 303 302 306 306 305 305 305 303 302 302 302 303 303 303 303 304 304 304 303 303 303 304 305 305 305 306 307 306 306 304 303 303 303 303 304 304 304 303 302 302 302 302 302 302 302 302 302 303 302 300 297 296 297 296 297 299 299 300 298 297 296 295 296 297 297 299 301 301 303 305 307 309 311 313 315 317
296 297 298 298 299 299 300 301 302 303 305 305 303 303 304 302 301 302 303 302 303 302 302 303 304 303 304 304 305 305 304 303 306 306 305 304 303 302 301 300 301 301 302 303 302 303 303 302 302 301 301 301 301 301 302 302 303 299 297 295 294 294 294 296 297 297 296 295 293 293 294 294 294 295 297 298 301 303 305 306 308 309 309 311 312
298 297 299 299 299 301 301 300 303 301 302 302 301 300 301 301 300 301 302 302 301 301 301 302 302 303 303 302 304 304 304 304 304 304 304 302 301 301 301 301 301 301 301 302 302 302 302 302 301 300 300 300 300 301 301 302 299 297 296 295 294 294 294 295 295 295 293 293 292 292 293 294 294 296 299 300 301 302 303 305 307 308 309 309 310
295 297 298 299 298 300 301 301 301 301 299 299 300 300 300 299 300 301 301 301 300 301 301 301 301 300 301 301 302 302 303 303 303 303 303 302 301 300 300 300 300 299 300 300 301 301 301 301 300 300 299 300 300 301 300 298 296 295 295 294 293 293 294 294 294 293 291 292 292 292 291 292 292 294 296 298 299 300 302 303 305 307 308 309 310
295 297 298 299 298 297 298 297 299 300 298 298 299 299 299 299 299 299 299 299 299 299 299 299 299 300 300 301 302 302 303 302 303 303 302 301 300 300 300 299 300 299 299 299 300 300 300 299 299 299 299 300 299 298 297 296 295 294 293 293 293 293 294 293 292 291 291 291 291 291 291 291 292 293 294 295 296 299 300 302 305 306 308 309 310
297 297 296 297 296 297 297 297 297 296 296 297 297 297 297 298 298 298 298 298 298 298 298 298 298 299 299 300 301 302 302 303 301 301 301 301 301 300 300 299 300 299 299 298 298 298 298 298 299 300 299 296 295 295 294 294 293 292 292 292 293 293 291 291 291 290 290 290 290 290 291 291 291 293 295 296 297 298 300 303 305 306 308 309 311
296 297 296 296 296 295 296 296 294 293 295 295 295 295 297 296 296 297 297 297 297 297 296 297 297 297 298 299 301 301 301 301 300 300 300 300 299 299 299 298 297 297 298 298 297 297 297 298 298 296 294 294 293 292 292 292 291 291 292 292 293 291 289 289 289 290 289 289 289 289 290 290 291 292 293 295 296 298 300 302 305 307 308 310 311
296 295 295 295 295 295 294 293 292 293 292 293 292 293 294 294 295 295 295 295 295 295 296 295 296 297 299 299 300 300 300 300 300 299 299 298 297 297 297 296 296 296 297 297 297 297 296 297 295 294 293 293 293 293 292 291 291 292 293 293 291 288 287 288 288 287 288 288 289 289 290 291 292 293 295 297 300 302 305 307 309 309 309 309 309
Wind_Speed
8 8 7 7 7 8 7 6 6 5 5 5 6 6 5 5 6 6 4 5 5 5 6 6 6 6 6 6 6 6 6 6 5 5 5 5 5 4 3 3 4 4 3 4 3 3 4 4 5 4 3 3 4 4 3 2 1 2 2 2 1 0 1 2 2 5 4 2 3 4 4 4 4 1 3 4 5 5 4 3 4 4 5 5 5
5 4 4 4 5 6 6 5 5 5 5 5 6 6 6 6 5 4 5 5 5 6 6 6 5 6 6 6 6 6 6 6 6 5 6 6 5 4 5 4 4 4 3 4 5 4 4 4 5 5 3 3 3 3 3 3 2 1 0 1 2 2 3 1 2 2 6 3 3 3 4 0 2 1 2 4 5 4 6 6 5 4 5 5 5
4 5 5 4 4 4 4 5 5 6 6 5 6 6 6 6 5 5 6 5 4 5 6 6 6 6 6 6 6 6 6 6 5 5 6 7 7 6 6 5 6 6 5 6 6 4 4 4 6 4 3 3 3 4 3 4 3 2 3 1 2 3 3 4 3 3 5 6 2 2 2 2 3 5 3 3 4 3 5 6 6 6 5 4 5
5 7 7 6 5 5 5 5 6 6 7 6 7 6 6 5 5 6 6 5 6 5 5 6 6 7 7 7 7 6 6 6 5 6 7 7 7 7 6 6 6 6 6 6 6 5 5 5 5 4 3 4 4 4 4 3 3 3 3 3 3 4 3 4 5 4 3 3 4 3 3 3 4 4 4 4 4 5 3 5 4 5 6 6 5
3 2 5 7 6 6 6 5 6 7 8 7 7 6 6 5 4 6 5 6 5 5 5 5 5 6 7 8 7 7 7 7 7 7 6 6 7 7 6 6 6 7 7 6 6 5 6 6 6 4 4 4 5 4 4 4 4 3 3 4 3 4 3 3 4 4 4 5 5 3 3 3 4 4 3 4 4 3 3 3 4 5 7 6 5
5 6 5 7 7 7 6 5 7 8 8 8 8 8 6 6 5 5 6 6 6 6 6 6 6 7 7 7 7 8 8 7 8 8 8 7 6 6 6 6 6 6 6 6 6 5 6 6 6 5 4 5 6 5 4 5 4 4 4 4 4 3 4 4 3 3 4 6 5 5 2 4 3 3 3 2 4 5 6 5 4 4 4 7 6
4 5 6 6 6 6 6 6 6 7 7 7 5 5 5 5 5 6 5 6 6 7 6 6 6 7 8 7 8 8 8 7 7 7 7 6 7 6 6 6 5 5 5 6 6 6 6 6 6 5 6 6 6 6 5 4 4 5 5 5 4 4 5 5 4 4 4 5 4 5 6 4 4 6 3 1 2 4 4 6 7 3 1 3 7
8 7 6 6 6 6 6 6 4 2 2 3 4 4 4 4 5 5 4 5 6 7 7 7 7 7 8 8 8 8 7 7 7 7 6 7 6 6 7 6 6 6 5 6 6 6 6 6 6 6 6 6 6 6 5 6 5 5 6 4 4 4 5 5 4 5 5 4 5 6 4 4 3 4 3 2 3 3 3 4 6 8 8 3 3
6 5 3 2 1 1 2 1 1 1 2 3 2 1 2 4 5 5 3 4 6 7 6 6 6 6 6 7 7 7 7 7 7 7 7 7 7 7 8 8 8 7 7 6 6 7 6 6 6 7 7 9 10 9 8 7 5 6 6 4 5 5 5 4 5 5 6 5 7 5 5 6 7 6 7 5 6 8 2 2 4 5 5 6 8
3 3 3 3 4 4 3 3 3 3 5 7 7 6 4 2 3 2 2 5 7 6 5 6 6 7 7 7 6 6 7 6 9 14 12 8 8 8 7 7 8 7 7 7 7 7 7 7 7 11 12 12 12 12 12 12 11 8 7 5 6 5 5 5 5 6 5 6 7 6 6 7 8 7 6 5 4 3 4 3 4 6 4 6 6
5 5 6 6 5 5 5 5 4 4 4 5 5 4 3 1 1 1 2 2 2 4 5 4 5 5 7 8 8 7 7 8 13 14 14 15 10 7 8 8 7 7 7 7 8 8 6 6 6 8 9 10 10 13 13 13 13 14 14 13 9 6 6 6 7 5 5 6 6 5 6 8 9 7 6 7 4 4 5 4 5 4 4 5 8
6 6 5 5 5 6 6 6 6 4 3 3 1 1 3 3 3 5 5 4 2 1 4 4 3 2 2 3 5 7 8 11 14 13 14 14 13 9 7 7 7 7 7 8 8 7 7 6 6 5 6 7 7 7 9 12 14 14 14 14 14 12 10 8 8 6 5 7 7 8 6 7 9 7 7 4 6 4 5 4 5 5 6 5 4
7 6 6 6 6 6 6 6 6 5 4 3 4 5 5 4 2 4 6 6 6 4 2 3 4 3 2 2 2 3 3 6 9 12 13 14 14 12 7 6 7 7 8 8 8 8 7 6 7 6 6 10 9 7 6 7 10 13 13 13 12 13 15 15 14 11 7 6 7 9 8 7 7 9 5 3 2 5 4 4 4 4 5 6 7
5 6 6 6 5 4 5 5 5 5 5 5 5 5 5 4 3 2 3 4 4 6 6 5 5 5 2 2 2 1 2 2 1 6 10 12 12 10 8 8 7 7 7 8 7 8 8 7 7 8 7 6 6 7 6 6 7 6 6 6 6 9 12 15 17 17 13 10 9 10 10 5 10 10 7 3 4 7 6 7 5 5 6 8 6
7 8 6 5 4 4 4 4 4 4 4 5 5 6 6 5 5 4 4 4 5 6 6 7 8 8 7 3 2 2 1 1 2 2 5 8 10 8 7 7 8 8 8 7 8 8 8 8 8 9 8 7 7 8 8 8 7 7 6 7 7 8 6 6 7 8 8 9 10 12 12 9 10 11 10 5 7 9 7 7 5 5 6 4 4
8 8 9 8 7 5 3 3 4 4 4 3 5 5 5 4 3 2 3 3 3 4 4 4 4 5 8 6 2 3 3 6 6 4 3 4 3 3 4 6 7 8 8 7 7 7 7 7 7 8 8 7 10 13 11 8 6 7 8 8 9 8 8 9 11 9 9 8 9 10 10 11 12 11 9 7 6 6 3 1 2 4 6 6 8
8 8 8 8 7 6 6 4 3 4 3 4 5 4 5 3 1 1 1 1 2 3 2 3 1 2 4 5 4 3 4 6 9 8 6 5 2 0 1 2 4 6 7 6 5 5 4 5 6 7 7 8 11 12 13 9 6 7 8 9 9 8 9 7 8 13 15 15 15 15 15 15 15 15 14 13 9 5 2 4 8 8 7 9 8
7 7 6 5 4 5 5 6 5 4 3 4 3 1 1 3 4 2 1 1 2 2 2 4 4 3 5 5 4 4 5 10 14 13 11 7 3 2 1 0 2 3 4 4 5 5 7 10 9 7 8 9 12 12 12 7 6 8 8 9 10 10 10 7 5 7 12 14 15 16 15 16 16 16 16 16 16 6 5 9 11 6 8 7 9
6 6 5 4 4 5 6 7 7 6 4 2 1 0 1 1 1 0 1 2 2 1 2 3 5 4 4 5 10 8 6 8 12 13 12 9 3 0 0 1 2 3 4 5 4 4 6 7 11 11 9 9 11 11 12 7 7 7 8 7 9 10 10 6 5 7 6 5 6 5 7 9 9 8 10 15 15 8 8 11 9 7 10 10 9
3 2 3 3 4 6 5 6 5 6 6 6 5 4 3 4 3 2 2 3 4 4 4 5 7 7 7 7 6 7 7 7 10 13 11 11 8 4 2 3 3 3 3 4 6 5 4 4 5 7 11 13 14 14 12 8 7 7 5 7 8 12 7 5 6 7 5 4 5 4 5 4 5 5 5 7 7 7 9 9 9 8 9 10 9
5 3 3 4 5 5 5 5 6 6 5 5 6 6 7 7 7 7 6 5 6 6 6 5 6 4 4 5 6 7 8 8 9 13 13 12 12 9 5 6 5 5 5 6 5 6 7 7 6 7 12 11 10 9 8 7 6 7 6 7 8 8 6 3 4 5 4 5 5 6 6 5 5 6 6 7 7 7 7 9 9 10 10 10 10
5 5 4 4 4 5 6 5 6 6 6 6 8 8 6 7 7 6 6 7 7 7 6 6 4 4 3 4 5 6 8 11 7 11 13 13 12 10 6 5 4 3 3 3 4 4 5 5 5 6 9 10 10 9 9 6 5 3 7 10 13 14 10 6 4 5 5 6 7 7 7 7 7 6 7 7 8 8 9 9 9 10 10 11 11
4 5 5 5 4 4 5 6 6 5 6 6 7 7 6 7 7 7 7 7 7 6 6 6 5 5 5 5 5 6 7 7 9 7 10 12 11 10 8 6 6 4 3 3 3 4 5 5 6 10 13 13 12 11 9 10 7 6 10 10 10 11 8 5 5 5 5 6 6 7 7 6 7 7 6 7 7 8 9 9 8 9 10 11 12
4 4 4 4 4 4 3 5 5 5 5 6 7 7 6 5 6 6 6 6 6 7 6 6 6 7 7 6 6 6 6 6 6 8 6 10 10 10 9 8 7 4 3 3 4 4 4 5 6 11 13 12 11 10 10 8 7 11 11 11 10 7 4 5 4 5 5 5 6 6 7 6 6 7 8 8 9 8 9 9 9 9 9 9 10
4 4 5 4 4 3 3 4 4 4 4 5 6 6 5 5 7 6 6 6 6 6 6 6 6 6 6 7 7 7 7 6 5 6 7 9 8 9 8 8 8 7 5 4 4 5 8 12 12 12 12 12 12 9 7 8 11 10 10 10 8 4 5 5 6 5 6 7 7 7 7 8 8 9 9 8 8 6 5 6 7 8 8 9 9
5 5 5 4 4 3 3 3 4 4 4 5 5 4 4 5 6 5 5 5 5 5 6 6 6 7 6 6 6 7 7 5 5 5 7 8 6 7 8 7 8 7 4 4 7 11 12 13 13 12 11 10 7 4 4 6 8 10 11 8 4 5 5 5 6 6 8 7 7 8 8 7 8 7 6 6 6 8 6 7 7 8 7 7 8
4 5 5 5 4 3 4 4 5 4 4 4 5 5 5 6 6 6 5 5 5 5 5 5 6 6 7 7 7 6 6 6 6 6 7 7 6 6 6 5 7 6 5 5 7 7 9 9 8 11 10 12 12 10 8 7 7 6 5 4 5 5 6 6 6 7 7 7 7 7 7 6 5 5 7 7 8 8 6 8 8 9 6 6 7
5 5 6 5 5 6 6 8 7 5 5 5 6 6 6 5 6 6 5 5 6 6 6 6 6 6 7 7 7 7 7 6 6 9 8 7 6 7 6 6 6 6 6 6 6 6 7 8 9 6 5 4 4 4 4 4 5 5 5 5 5 5 6 8 8 6 7 7 8 7 7 7 7 7 7 7 8 8 6 7 8 9 7 6 6
5 6 5 5 5 4 5 4 5 6 5 5 5 5 5 5 5 3 2 2 2 3 5 5 5 5 4 5 7 8 7 7 7 5 5 5 4 4 7 7 7 7 6 8 6 5 5 5 6 7 6 6 6 6 5 5 5 4 5 6 5 5 5 5 6 6 6 6 7 7 8 7 7 7 7 8 8 8 6 7 8 8 7 6 9
6 6 6 6 5 5 5 6 5 6 5 6 5 4 6 5 4 4 4 4 3 1 1 2 2 4 5 4 2 4 6 6 7 9 9 8 7 5 6 8 8 7 9 11 4 3 6 6 7 7 7 7 7 6 7 7 6 6 5 6 6 6 6 6 6 7 6 7 7 7 8 7 8 8 7 9 9 8 7 7 8 7 7 8 9
6 6 6 6 7 7 6 6 6 5 5 5 5 5 6 4 4 4 4 6 6 8 8 8 6 5 2 4 3 3 2 4 8 7 9 9 9 10 11 10 10 9 8 7 6 8 8 8 9 9 10 10 9 10 11 10 10 9 9 9 7 7 7 6 7 7 7 7 7 7 7 7 8 8 8 9 9 9 7 6 7 7 8 8 9
5 5 6 5 7 6 5 6 6 6 6 5 6 5 5 6 6 7 10 9 10 10 10 10 11 9 5 2 4 5 8 10 10 9 8 8 10 11 11 10 8 8 7 3 7 8 8 8 8 9 9 9 9 9 10 10 10 10 10 9 9 10 10 10 11 10 8 8 7 7 7 7 8 8 8 8 8 9 8 8 7 7 8 7 9
5 4 5 6 6 7 6 6 5 6 5 6 6 5 6 6 6 7 6 9 9 9 9 10 11 11 8 7 5 3 4 6 7 7 9 10 10 10 8 7 8 8 6 8 8 7 7 7 7 7 8 8 8 8 8 8 9 10 9 9 9 9 9 10 11 9 9 9 9 8 8 8 8 8 8 8 8 9 8 8 7 7 8 8 9
5 5 6 6 6 6 6 5 5 5 4 3 4 4 4 4 5 5 6 6 6 5 7 9 11 11 9 7 7 9 10 9 9 9 9 10 10 10 6 3 5 9 10 7 7 6 7 7 8 8 8 8 8 9 9 9 9 9 9 9 9 9 10 10 10 10 9 10 9 9 9 8 8 8 8 8 8 8 8 8 8 8 8 8 9
5 8 13 9 4 5 5 5 4 5 5 5 4 3 3 3 3 4 5 5 5 5 5 6 8 9 8 6 8 10 10 11 10 9 10 9 10 7 6 7 8 6 6 5 5 5 6 6 7 8 9 8 8 8 8 9 9 9 9 10 10 10 10 9 9 10 10 10 9 9 10 10 10 9 9 8 7 7 8 8 8 8 8 9 9
5 4 4 6 5 4 5 4 5 5 5 5 4 3 3 3 4 4 3 3 4 4 5 5 4 6 10 9 11 11 11 11 10 9 9 10 10 9 7 6 5 5 5 5 5 4 4 3 4 4 6 8 8 8 8 8 8 9 9 10 10 10 10 10 11 11 11 10 10 10 10 9 9 10 11 10 9 9 8 9 9 9 9 9 9
4 4 4 5 5 4 4 4 4 4 5 3 4 4 3 3 3 4 3 3 4 5 5 4 5 5 5 6 8 8 11 10 10 9 7 7 6 5 4 4 4 4 4 5 5 4 5 4 3 3 4 5 7 8 8 8 8 8 9 8 9 10 9 10 11 11 11 10 10 10 10 10 10 10 10 11 11 11 10 10 10 11 11 12 11
4 4 4 4 4 5 5 5 5 7 5 5 5 5 4 4 4 4 4 4 5 4 4 4 5 5 6 6 9 7 6 7 7 7 6 6 3 3 3 2 2 3 4 3 3 4 4 4 4 4 4 5 5 6 7 8 8 8 9 9 9 9 13 12 12 10 10 9 10 10 10 10 11 11 11 11 11 11 11 11 11 12 11 11 9
4 6 9 9 6 5 5 4 4 5 5 5 5 5 5 4 4 4 3 3 3 4 4 4 5 5 5 5 4 5 6 6 6 6 5 2 2 2 3 3 2 1 2 2 2 3 4 5 4 4 4 5 5 5 5 6 8 8 8 8 9 8 9 8 9 9 9 9 9 8 9 9 9 9 10 10 11 11 11 12 11 11 12 11 10
4 3 4 7 3 4 3 4 4 4 4 5 5 4 4 4 3 4 4 4 5 4 4 5 5 5 5 4 3 4 6 5 5 5 5 2 3 3 3 4 4 4 3 3 3 3 3 4 5 5 5 5 5 5 5 5 6 7 7 7 8 9 9 8 9 9 9 9 8 8 9 10 10 10 10 9 10 11 11 12 12 12 12 11 11
3 3 4 5 6 4 4 4 4 5 5 5 5 5 5 4 3 4 4 5 4 5 5 5 5 5 5 6 9 8 5 5 5 4 4 3 4 3 3 3 3 3 3 3 3 3 3 4 4 5 5 5 5 5 5 5 6 7 7 7 8 9 9 9 10 10 10 9 7 8 9 9 9 10 11 11 11 11 11 11 11 11 9 9 11
3 3 3 3 3 4 4 4 4 6 5 5 5 5 4 4 4 4 5 4 4 4 5 4 4 4 6 11 11 12 7 5 4 4 4 4 3 3 2 2 2 2 2 2 3 3 3 4 4 5 5 5 5 5 5 5 6 7 7 7 8 9 10 9 9 10 10 10 9 9 8 9 10 10 10 11 10 9 10 10 11 11 11 12 11
3 3 3 4 4 4 4 5 5 5 5 5 5 5 5 5 5 5 4 4 5 5 4 4 4 4 5 7 9 9 6 5 5 5 5 5 4 3 2 2 2 2 3 3 3 3 4 4 5 5 5 5 5 5 6 6 7 7 8 7 8 9 9 9 9 9 9 9 9 9 10 10 10 9 9 9 10 10 10 11 10 10 10 11 11
3 3 4 4 4 4 4 5 5 5 5 6 7 6 6 4 4 4 5 5 5 5 5 5 5 5 4 4 4 4 5 5 5 5 5 5 5 4 2 2 2 2 3 3 3 4 4 5 5 5 4 4 4 4 5 5 6 7 6 7 8 9 9 9 9 9 9 9 9 10 10 10 10 9 9 9 10 10 10 10 11 11 11 10 11
2 2 3 4 4 5 4 4 5 5 6 6 4 4 5 5 5 5 4 5 5 6 6 6 6 6 5 5 4 4 4 4 4 5 5 5 4 2 2 3 3 4 4 4 4 4 4 4 4 5 5 5 4 5 5 5 4 3 4 6 7 8 7 8 8 8 8 9 10 10 10 9 9 9 9 9 9 9 9 10 11 12 12 11 11
2 2 2 2 3 4 4 5 4 5 4 5 5 5 5 5 5 5 5 5 6 7 6 6 6 6 6 6 6 5 4 4 4 4 4 5 4 3 3 3 4 4 4 4 4 4 4 4 4 4 4 5 5 5 5 3 2 3 4 5 6 7 7 7 7 8 8 9 9 9 10 10 10 9 11 10 9 9 10 11 10 10 10 11 12
2 2 2 3 3 4 4 5 5 5 5 6 5 5 6 6 6 7 7 8 8 8 7 6 6 6 6 6 7 6 6 5 4 4 4 4 4 4 4 4 4 5 5 5 5 5 5 5 4 4 4 4 4 4 3 3 3 4 4 5 6 7 7 7 8 8 9 9 9 9 9 9 10 10 11 11 9 10 10 10 10 12 11 10 11
2 2 2 3 3 3 3 3 5 6 4 4 5 6 6 6 5 6 6 7 7 7 8 7 7 7 8 7 7 7 7 6 5 5 4 4 4 4 4 4 5 5 5 5 5 5 5 5 5 4 4 3 3 3 3 3 3 4 4 5 5 6 9 11 9 9 8 9 9 10 10 10 10 10 10 10 10 9 9 9 9 10 11 10 11
2 3 3 3 3 3 3 4 4 4 4 4 5 5 5 5 6 6 6 6 6 6 7 8 8 8 8 8 8 7 6 5 4 4 4 4 3 4 4 4 4 5 5 5 5 5 5 5 5 3 2 2 2 3 3 4 4 5 5 5 7 13 14 14 11 9 12 11 10 10 10 10 11 11 10 10 10 10 10 11 9 9 10 10 11
2 2 2 2 2 3 3 3 3 4 4 5 5 5 5 5 5 5 5 6 6 6 6 7 8 8 8 8 8 7 6 5 5 5 4 4 4 4 5 5 5 5 5 5 5 5 5 5 3 1 1 2 2 2 3 4 4 5 5 7 12 14 14 15 14 16 12 8 9 9 10 10 10 10 9 9 10 11 11 11 9 10 11 12 12
1 1 1 1 2 2 2 2 3 3 3 4 4 5 5 4 4 5 7 7 7 7 7 7 7 7 8 7 8 7 6 5 5 4 4 4 4 4 5 5 6 6 6 5 4 4 5 5 4 3 2 2 3 3 3 4 5 6 9 13 14 14 14 13 11 14 17 13 9 10 10 10 9 9 8 8 9 9 10 12 12 11 11 11 12
Wind_Direction
187 191 185 194 187 190 190 184 192 188 192 194 197 199 198 200 204 211 199 209 204 203 203 208 207 209 211 212 213 210 210 211 201 194 192 202 209 210 211 194 208 230 229 250 248 245 244 248 260 260 254 281 279 282 278 258 151 149 146 131 122 115 126 154 239 282 298 257 255 277 307 335 317 356 335 328 330 328 326 288 285 282 283 280 281
184 177 180 186 195 197 197 187 186 187 194 198 203 204 202 200 203 204 213 219 204 211 210 211 209 208 213 219 217 217 215 214 207 196 200 205 210 201 212 208 214 230 223 242 245 238 234 240 257 265 252 239 262 263 243 262 254 271 192 165 197 199 179 149 215 218 282 307 307 294 293 268 277 294 272 304 310 321 322 318 306 280 278 284 281
137 146 162 177 195 196 195 198 189 193 200 201 207 209 208 206 195 200 212 222 215 215 214 213 208 206 213 216 219 222 219 218 213 206 211 210 212 211 208 206 212 222 226 234 237 232 233 235 247 249 241 243 258 253 238 236 223 211 244 195 212 226 194 187 176 245 269 281 237 276 265 293 214 275 280 258 273 281 293 299 302 307 304 292 284
135 147 152 162 174 180 197 201 201 202 205 208 210 211 209 207 200 205 213 213 215 223 221 217 210 207 210 213 214 219 222 222 217 214 216 215 217 218 214 213 214 218 221 226 228 223 227 235 244 242 246 253 265 265 263 244 224 224 230 246 213 238 217 181 197 202 230 256 288 244 264 267 280 258 256 270 273 291 268 282 293 295 301 303 293
106 121 149 151 156 173 186 188 203 215 217 212 215 211 209 209 200 208 212 221 220 213 223 216 212 209 212 213 212 213 218 217 218 220 223 221 222 224 221 219 222 223 224 225 226 223 227 227 238 236 240 253 267 263 260 256 247 230 239 250 241 243 243 207 208 194 211 246 272 266 245 252 248 264 253 273 299 284 278 283 293 298 300 294 291
166 170 166 165 175 181 187 194 198 208 220 222 218 214 213 213 211 209 207 220 227 220 214 212 209 211 216 218 214 214 214 214 218 221 221 223 226 229 229 225 228 230 232 231 231 228 229 231 235 226 221 227 245 253 255 253 261 253 250 254 251 254 256 260 223 211 214 240 240 290 300 262 303 275 255 223 271 298 308 297 298 296 300 316 308
266 211 175 174 178 195 194 200 212 212 211 222 227 212 210 213 219 225 215 221 227 229 223 219 216 211 216 217 218 216 215 214 217 221 224 226 227 229 233 232 233 234 237 237 236 233 232 235 235 226 224 224 233 236 234 241 242 252 247 249 247 242 256 259 255 241 233 249 260 236 262 265 230 275 280 208 227 227 261 312 310 283 270 268 301
199 222 201 177 178 193 203 213 213 263 293 254 227 218 205 206 216 224 225 231 232 231 231 227 224 215 218 217 219 217 214 215 216 219 221 223 225 229 230 232 233 233 238 239 239 238 236 238 240 235 229 230 227 233 217 230 225 242 246 243 251 247 255 261 265 259 263 264 260 276 263 285 303 264 302 342 309 294 212 233 276 297 309 303 254
178 186 199 195 173 163 220 204 116 49 10 2 356 6 27 24 10 348 310 260 232 227 232 229 228 230 231 225 224 221 219 222 219 215 217 223 221 227 225 226 227 231 233 235 235 236 239 237 239 239 235 236 231 232 229 222 225 240 249 223 238 238 255 259 253 264 265 264 281 277 288 293 279 286 293 281 262 265 258 166 261 268 282 308 299
106 107 101 80 72 63 50 38 38 63 67 64 56 34 20 72 81 54 30 353 329 300 251 226 220 221 224 227 226 223 225 225 226 221 216 215 216 222 224 225 226 227 230 236 240 234 234 234 237 235 235 239 240 241 242 243 240 233 244 230 227 229 237 246 252 243 245 257 257 266 279 274 273 266 264 262 264 290 301 265 269 286 316 293 286
61 58 63 64 69 72 72 64 57 55 80 105 115 148 162 170 147 165 235 284 323 326 315 281 250 235 221 216 218 222 227 228 227 224 224 223 219 217 221 226 223 226 228 230 240 242 242 237 237 245 243 240 241 242 243 243 246 248 249 248 235 215 231 243 249 236 234 242 255 254 249 265 270 265 259 274 279 261 267 274 267 292 290 302 301
60 56 48 57 66 72 77 79 74 75 96 120 201 279 37 57 0 321 296 262 223 32 324 310 301 300 295 274 240 228 227 230 228 228 227 227 224 224 221 225 221 222 227 229 234 237 242 243 241 238 237 236 237 240 239 239 240 244 246 248 250 247 242 233 245 252 229 240 252 248 246 252 267 274 273 265 270 271 254 253 258 261 275 272 260
51 52 46 51 58 69 72 71 70 66 55 93 93 72 72 65 32 327 309 321 340 353 339 325 310 302 264 249 253 269 278 280 262 244 235 230 225 224 235 224 219 219 221 226 229 231 232 237 246 241 244 243 241 239 240 249 245 240 242 248 252 241 238 240 238 237 242 230 242 255 239 246 260 265 244 227 209 257 270 260 247 242 236 254 257
47 43 36 41 44 56 75 77 73 65 63 63 75 92 99 101 88 18 321 346 356 352 348 349 331 311 289 252 246 235 231 281 289 253 252 253 247 226 234 235 232 230 226 224 226 227 225 228 235 245 243 243 241 242 242 242 250 256 254 245 243 242 235 233 236 237 235 236 239 248 252 205 244 256 255 200 227 254 259 263 261 268 263 252 254
35 42 35 28 26 35 52 80 82 66 70 82 74 74 66 59 59 51 27 16 16 18 15 17 4 336 325 306 290 283 256 189 296 272 253 237 238 219 233 238 240 240 236 230 230 230 227 225 227 237 243 239 238 234 238 243 243 248 253 257 250 248 243 234 226 224 223 222 230 238 251 244 241 251 258 229 227 243 240 251 251 253 268 283 291
51 48 39 26 23 15 22 60 84 83 71 66 74 73 71 58 48 34 61 40 15 30 24 16 12 351 317 323 350 327 312 311 311 305 297 307 252 217 222 229 238 244 246 242 236 235 233 228 230 239 242 243 245 238 236 239 239 249 256 259 263 261 255 241 235 231 226 220 219 230 238 243 242 246 251 245 239 247 250 294 303 273 281 291 283
50 45 46 33 6 6 15 23 70 93 92 71 58 54 67 71 336 249 205 184 128 104 96 78 358 323 300 307 336 346 346 333 335 334 337 356 38 352 278 256 258 259 259 264 266 263 256 240 237 245 250 250 250 243 242 236 248 251 255 261 263 270 270 268 234 235 238 239 242 246 252 260 266 270 272 271 260 271 306 306 275 269 278 282 279
46 46 37 39 13 11 24 31 33 44 67 84 90 96 165 178 185 205 191 145 93 35 21 58 57 12 307 319 335 12 1 22 23 10 6 12 327 340 7 253 275 274 282 279 274 270 263 259 246 238 244 252 252 247 245 224 233 243 248 257 267 269 271 270 271 252 233 236 242 247 253 260 263 267 270 269 261 234 208 249 257 269 270 257 270
18 31 25 9 22 24 27 31 33 31 29 35 51 6 281 204 188 165 13 26 30 92 76 70 63 41 350 344 21 25 30 27 18 12 1 5 9 43 91 38 325 305 306 300 294 277 283 280 273 267 263 265 262 255 251 226 233 235 238 246 259 261 261 267 255 266 270 265 258 247 259 250 251 251 258 260 262 238 212 236 256 247 257 262 261
329 342 10 37 34 34 33 35 35 38 35 34 32 35 27 47 51 81 20 6 24 24 37 49 48 33 5 0 22 24 28 19 11 10 8 4 12 353 15 32 350 328 317 316 316 314 304 291 296 294 285 287 294 298 300 290 256 252 235 237 248 260 258 247 241 241 258 257 266 261 257 257 247 238 243 253 251 228 220 221 229 230 242 256 254
354 1 4 19 42 40 40 44 44 44 48 57 60 50 42 47 50 51 44 33 37 34 34 38 50 44 351 352 14 21 21 21 7 18 26 29 24 20 9 15 5 351 343 333 331 321 321 318 308 348 22 26 19 5 347 324 279 272 264 251 244 276 338 303 286 300 293 287 283 281 272 262 250 237 239 240 243 238 223 217 217 216 222 241 252
6 12 17 7 27 43 45 45 52 56 51 57 60 55 43 48 46 44 38 36 34 29 22 21 25 27 360 8 24 24 18 22 15 36 56 55 42 35 28 26 5 338 351 328 323 317 309 313 305 27 4 354 339 335 328 339 318 253 257 260 283 295 288 275 274 269 264 268 268 270 271 268 263 250 240 237 237 237 235 228 217 217 219 225 234
10 18 18 10 19 36 51 51 52 50 57 55 61 56 45 44 38 36 37 36 35 29 17 12 8 7 5 11 16 15 12 7 23 36 69 55 45 41 34 28 347 350 352 331 325 312 313 317 314 334 329 322 319 311 303 297 296 261 261 267 267 271 273 260 248 242 245 249 255 262 265 263 268 269 258 253 245 238 241 238 232 219 221 227 231
360 26 20 8 16 31 41 65 56 56 56 58 58 55 45 45 45 37 32 35 30 25 15 9 10 8 3 360 4 3 360 4 10 17 59 54 41 28 21 20 27 8 335 310 312 303 306 311 308 310 304 298 298 306 306 295 268 277 278 274 274 274 261 263 245 240 242 244 246 252 257 255 258 265 263 255 255 244 240 241 240 233 229 232 232
5 20 8 6 357 48 23 65 67 63 55 63 64 53 45 42 47 30 38 35 30 27 13 9 12 360 359 360 352 347 349 355 5 4 47 48 36 21 13 8 13 18 7 342 322 314 300 291 287 285 282 281 277 276 280 278 276 272 271 270 267 247 243 243 253 249 251 249 249 252 256 253 249 256 263 268 272 269 258 257 249 247 243 243 242
14 5 357 356 0 23 48 51 72 62 56 60 70 66 63 51 60 48 48 43 36 30 10 9 6 1 356 351 348 338 334 347 358 11 28 3 8 5 358 358 4 3 337 305 312 306 299 294 284 274 267 263 265 257 262 268 274 278 276 266 247 249 250 254 256 250 254 259 258 259 262 268 265 268 272 269 267 265 255 255 251 252 246 253 263
31 24 14 357 1 32 66 46 42 48 66 68 61 55 47 50 50 52 46 40 31 23 16 13 7 1 356 344 342 340 334 348 6 18 6 359 357 355 348 349 356 356 357 347 333 324 315 312 303 295 281 278 273 270 267 275 281 277 265 247 230 232 238 235 245 254 262 267 268 267 271 274 287 295 282 278 271 267 246 257 258 261 247 244 247
37 30 25 21 38 44 36 44 45 31 29 42 54 50 42 46 57 50 43 33 28 17 14 11 6 359 346 340 336 344 347 359 24 4 358 0 351 345 345 348 353 351 347 347 329 313 311 304 301 307 314 314 294 274 268 255 262 278 279 273 264 254 252 253 257 255 260 261 268 276 279 277 276 271 275 270 268 269 261 256 257 263 253 241 247
36 29 24 28 31 39 44 41 39 40 32 41 58 73 62 50 49 46 56 86 50 41 13 3 1 348 336 332 336 339 348 4 4 359 3 14 1 337 349 348 340 335 342 335 319 315 321 329 343 345 354 344 336 329 322 311 298 281 283 285 274 265 260 256 259 259 257 259 264 268 273 276 275 274 274 276 271 270 261 260 255 255 258 228 244
34 24 19 22 24 36 40 42 40 40 41 32 25 43 85 87 58 50 8 19 57 116 154 11 335 322 335 329 333 329 333 338 349 3 0 357 350 334 309 309 317 315 325 319 293 315 357 354 358 351 348 347 338 331 327 325 322 316 309 291 283 281 275 267 263 266 263 260 267 272 273 275 277 276 274 271 277 271 256 238 257 241 246 241 248
37 30 29 29 36 42 33 40 33 36 31 25 30 20 355 17 34 21 11 355 9 5 2 358 43 77 349 344 4 69 80 9 16 11 7 355 343 342 342 343 348 342 342 352 19 19 8 7 7 6 1 357 360 359 353 349 351 347 344 338 323 305 289 283 281 278 276 272 269 265 265 267 270 272 271 270 271 274 269 245 243 246 242 250 253
38 34 41 33 35 40 37 33 32 29 26 22 21 15 17 357 354 4 3 358 353 358 356 357 358 40 59 37 0 7 22 18 7 3 357 356 346 347 351 3 9 7 346 314 24 21 16 10 10 5 357 355 354 352 350 347 346 343 341 341 343 347 343 342 336 321 310 300 291 283 277 272 269 269 268 267 267 269 268 266 251 250 252 251 255
28 33 51 42 38 37 34 31 31 29 23 20 14 16 14 9 2 350 351 346 343 345 349 351 355 8 51 49 42 52 342 334 355 358 352 351 354 356 358 28 41 17 18 36 31 19 12 10 6 2 360 349 343 342 340 340 339 334 332 331 334 336 334 329 322 328 334 329 319 309 301 294 284 277 269 267 266 269 267 265 262 254 255 262 263
22 34 54 51 37 34 27 21 18 18 23 24 20 15 10 0 355 351 351 353 355 349 346 354 355 3 15 29 17 0 4 3 1 2 1 359 358 358 21 41 71 51 55 39 29 25 15 12 4 359 354 345 342 339 338 336 333 327 324 329 332 330 330 328 327 331 330 327 325 322 319 316 304 287 275 267 264 265 270 266 264 262 261 257 265
38 36 38 43 45 33 20 15 9 1 6 13 13 11 3 360 3 2 358 351 350 354 355 347 347 359 0 353 339 345 359 356 356 354 352 1 12 3 40 37 30 18 34 38 38 33 26 15 4 354 348 346 344 340 334 330 326 329 334 335 330 329 329 328 330 330 325 321 321 327 328 320 320 315 296 280 275 272 272 274 272 268 271 272 269
34 36 29 34 32 26 16 4 0 355 358 354 356 5 6 8 6 1 341 337 348 359 360 343 333 329 348 348 344 348 353 349 349 353 346 2 13 32 40 29 32 21 21 18 24 28 31 21 9 359 352 346 338 334 329 326 331 334 334 329 329 329 326 331 331 326 324 324 325 324 320 323 332 337 337 331 315 302 293 288 285 280 274 273 275
31 24 22 25 24 15 7 357 349 350 356 356 1 358 359 5 3 356 349 342 3 4 343 329 333 348 347 354 348 351 345 345 344 343 354 355 19 54 70 64 45 25 27 10 6 7 9 2 353 346 344 342 337 334 329 328 330 331 329 327 325 322 327 328 323 326 325 324 326 323 326 337 347 349 347 337 332 329 323 316 304 290 281 271 269
31 23 22 23 19 12 1 350 345 2 1 12 3 351 348 355 356 356 5 4 0 350 346 336 347 350 346 333 344 354 334 338 343 348 356 7 16 43 43 28 41 32 24 358 2 1 356 339 339 332 331 331 328 336 332 329 329 328 326 324 321 321 322 321 322 321 321 321 320 333 350 348 347 343 340 333 326 323 321 324 324 318 305 286 274
17 14 18 21 20 10 349 343 356 9 7 6 352 346 350 347 349 355 5 357 351 349 349 340 340 341 335 322 345 340 348 353 348 336 329 321 2 26 11 5 347 358 35 8 354 4 350 336 327 324 321 321 315 315 324 327 327 321 320 317 319 317 322 321 321 321 322 319 326 345 342 338 336 335 332 325 319 320 320 318 314 311 307 307 302
21 343 349 13 5 1 351 351 355 357 353 349 337 338 337 335 345 2 356 355 353 352 346 347 342 331 320 331 349 351 356 337 322 319 314 343 5 357 349 349 352 349 4 6 14 358 344 318 313 313 309 305 306 303 308 315 317 315 314 317 320 322 321 321 319 319 318 319 331 341 338 332 329 325 319 315 314 315 312 308 307 304 302 299 295
14 355 7 355 349 348 347 346 345 336 340 332 327 324 316 331 358 7 357 355 346 345 342 339 333 319 319 325 337 351 342 329 324 336 347 350 346 341 349 356 354 349 358 13 359 338 320 308 301 300 300 297 302 308 313 315 319 318 318 320 322 321 320 320 319 317 317 320 334 331 326 323 323 323 318 316 313 305 302 304 302 300 298 296 294
7 2 356 343 344 344 342 337 337 333 326 319 319 314 312 344 5 358 352 347 341 338 336 335 324 324 326 343 343 342 342 331 335 351 346 347 339 335 343 341 343 352 350 352 331 324 316 314 304 300 300 305 310 313 318 315 314 316 319 323 324 323 319 317 317 319 322 321 323 323 321 318 314 312 307 307 306 306 301 300 298 297 296 295 292
357 344 337 334 336 338 334 330 325 320 319 308 296 325 346 356 356 349 343 342 337 333 331 329 320 331 342 345 339 343 339 339 344 342 340 339 335 324 338 331 354 335 335 319 319 306 302 302 297 301 303 308 311 314 317 312 313 314 319 322 322 318 315 314 314 317 318 316 316 317 315 313 308 305 301 302 302 300 296 294 290 287 288 288 293
349 345 338 341 335 332 323 323 321 318 305 322 342 344 343 347 349 346 343 333 327 329 330 325 327 332 330 326 331 343 342 340 334 337 337 334 328 332 346 324 312 304 305 299 300 301 301 301 303 300 300 302 306 305 301 303 307 313 320 322 318 315 314 313 315 317 320 320 316 311 306 300 295 292 291 291 299 301 300 298 299 300 301 300 299
349 341 335 329 327 328 319 320 316 320 331 340 340 348 349 347 343 337 332 334 335 337 331 331 331 327 322 325 332 337 340 331 334 333 327 319 311 312 301 302 305 303 293 290 284 287 284 288 290 302 306 305 300 296 298 298 312 326 323 313 307 306 307 310 313 317 319 313 306 301 299 298 296 292 289 290 290 294 295 298 298 302 302 299 299
358 352 337 332 331 331 331 330 348 345 360 359 354 341 339 341 335 329 337 338 336 331 329 330 330 329 325 320 322 326 328 328 324 312 317 311 301 289 292 303 300 297 291 290 292 286 283 280 287 289 295 290 293 293 296 303 315 306 302 301 298 297 300 304 310 312 306 300 295 292 291 289 288 284 284 286 287 284 283 288 287 285 284 288 288
5 341 342 336 340 348 6 9 355 350 11 347 346 340 342 339 335 335 334 332 331 329 324 325 328 325 322 321 321 319 319 317 312 310 303 302 302 301 298 295 291 289 289 289 286 283 279 283 284 281 279 279 280 287 300 304 303 309 309 303 299 298 299 307 311 305 296 290 285 284 284 283 283 282 284 281 277 281 280 279 283 287 286 284 284
4 345 338 349 5 26 15 5 360 355 345 344 336 337 332 325 330 332 332 332 330 325 322 321 320 320 319 318 317 313 311 308 310 314 306 301 300 303 303 298 292 287 288 287 283 279 282 283 284 282 280 290 308 314 308 307 308 307 301 297 292 292 302 309 302 295 289 289 284 278 273 274 274 275 276 276 274 273 276 274 276 278 281 280 280
46 39 33 18 20 12 5 7 349 343 330 335 332 327 321 327 327 330 324 321 324 323 325 323 321 320 318 313 311 307 306 308 311 313 314 311 320 326 315 301 299 294 292 289 288 288 289 290 287 288 309 321 321 317 315 316 308 301 297 293 297 303 305 301 297 291 290 288 278 271 268 265 266 267 267 269 271 270 269 274 273 275 281 278 277
73 61 39 26 14 1 2 351 343 340 340 339 326 321 326 326 320 315 320 323 324 323 321 318 316 312 309 310 314 316 317 321 318 316 318 333 337 329 320 313 306 301 300 295 297 297 299 297 291 302 314 295 301 302 299 300 296 296 291 295 303 304 301 299 294 294 296 287 283 272 265 261 261 262 263 263 269 271 272 272 273 277 280 282 283
74 69 49 30 9 5 345 332 338 338 334 318 310 312 318 319 330 334 331 329 326 319 316 308 304 306 308 312 309 309 308 308 307 312 317 327 327 323 323 322 319 313 304 298 300 297 298 297 286 276 258 271 271 276 281 285 291 290 298 304 306 303 302 303 304 301 296 288 278 272 259 254 250 255 256 265 269 268 270 277 281 285 286 284 282